Powrót do katalogu

STARLINK-36634

AktywnyŁącznośćSSO
NORAD 67593·PAYLOAD·🇺🇸 United States

Wystrzelony Jan 29, 2026 z Vandenberg Space Force Base

Loading…

Następne Przeloty (najbliższe 24 godziny)

TLE

ŚwieżeSource: CelesTrak SupGP

Epoka: Sep 14, 2026, 21:01 UTC

1 67593C 26018E   26257.87618056 -.00024684  00000+0 -76634-3 0  2571
2 67593  97.2844 321.4273 0001154  96.5279 106.5708 15.33448675    11

Śledź STARLINK-36634 w czasie rzeczywistym z AllMySat

Download on the App Store